Nome, AK

2:33 PM AKDT on September 24, 2017 (GMT -0800)
Nome

Weather History for PAOM - November, 2014

Change the Weather History Date:

Sunday, November 30, 2014

  Actual Average Record
Temperature  
Mean Temperature 28 °F 13 °F  
Max Temperature 31 °F 20 °F 43 °F (1983)
Min Temperature 24 °F 6 °F -39 °F (1948)
Degree Days  
Heating Degree Days 37 52  
Month to date heating degree days 1155 1443  
Since 1 July heating degree days 3545 4093  
Cooling Degree Days 0 0  
Month to date cooling degree days 0 0  
Year to date cooling degree days 3 3  
Moisture  
Dew Point 28 °F    
Average Humidity 0    
Maximum Humidity 0    
Minimum Humidity 0    
Precipitation  
Precipitation 0.09 in 0.03 in 0.47 in (1946)
Month to date precipitation 1.44 1.22  
Year to date precipitation 13.67 15.73  
Snow  
Snow 0.90 in 0.40 in 9.40 in (1946)
Month to date snowfall 12.7 12.1  
Since 1 July snowfall 17.6 17.3  
Since 1 September snowfall 17.6 17.3  
Snow Depth 11.00 in    
Sea Level Pressure  
Sea Level Pressure 29.94 in    
Wind  
Wind Speed 12 mph (East)    
Max Wind Speed 23 mph    
Max Gust Speed 33 mph    
Visibility 5 miles    
Events Fog , Snow    
T = Trace of Precipitation, MM = Missing Value Source: NWS Daily Summary

Daily Weather History Graph

Daily Weather History Graph

Search for Another Location

Airport or City:

Trip Planner

Search our weather history database for the weather conditions in past years. The results will help you decide how hot, cold, wet, or windy it might be!

Date:

Astronomy

Nov. 30, 2014 Rise Set
Actual Time 11:22 AM AKST 4:17 PM AKST
Civil Twilight 10:10 AM AKST 5:30 PM AKST
Nautical Twilight 9:04 AM AKST 6:36 PM AKST
Astronomical Twilight 8:04 AM AKST 7:35 PM AKST
Moon 3:08 PM AKST (11/30) 2:42 AM AKST (11/30)
Length of Visible Light 7h 19m
Length of Day
4h 54m
Waxing Gibbous, 66% of the Moon is Illuminated
Nov 30
Waxing Gibbous
Dec 6
Full
Dec 14
Last Quarter
Dec 21
New
Dec 28
First Quarter

Hourly Weather History & Observations

Time (AKST) Temp. Windchill Dew Point Humidity Pressure Visibility Wind Dir Wind Speed Gust Speed Precip Events Conditions
12:07 AM 30.0 °F - 30.0 °F 100% 30.04 in 5.0 mi Calm Calm - N/A   Overcast
12:35 AM 30.0 °F 24.1 °F 30.0 °F 100% 30.04 in 8.0 mi SE 5.8 mph - 0.00 in   Overcast
12:51 AM 30.2 °F 25.4 °F 30.2 °F 100% 30.04 in 10.0 mi SSE 4.6 mph - 0.00 in   Overcast
12:53 AM 30.0 °F 25.2 °F 30.0 °F 100% 30.04 in 10.0 mi SSE 4.6 mph - 0.00 in   Overcast
1:40 AM 30.0 °F 26.5 °F 30.0 °F 100% 30.04 in 7.0 mi SSE 3.5 mph - N/A   Overcast
1:53 AM 30.0 °F - 30.0 °F 100% 30.04 in 8.0 mi Calm Calm - N/A   Overcast
2:14 AM 30.0 °F 26.5 °F 30.0 °F 100% 30.05 in 9.0 mi SSE 3.5 mph - N/A   Overcast
2:38 AM 30.0 °F - 30.0 °F 100% 30.05 in 8.0 mi Calm Calm - N/A   Overcast
2:53 AM 30.0 °F - 30.0 °F 100% 30.05 in 8.0 mi Calm Calm - N/A   Overcast
3:32 AM 30.9 °F - 30.9 °F 100% 30.04 in 5.0 mi Calm Calm - N/A   Overcast
3:53 AM 30.9 °F 27.5 °F 30.9 °F 100% 30.04 in 3.0 mi East 3.5 mph - N/A   Overcast
4:00 AM 30.9 °F 27.5 °F 30.9 °F 100% 30.03 in 2.0 mi East 3.5 mph - N/A   Overcast
4:10 AM 30.9 °F 27.5 °F 30.9 °F 100% 30.03 in 1.5 mi East 3.5 mph - N/A   Overcast
4:17 AM 30.0 °F 25.2 °F 30.0 °F 100% 30.03 in 1.2 mi East 4.6 mph - N/A   Overcast
4:53 AM 30.9 °F 27.5 °F 30.9 °F 100% 30.03 in 1.2 mi East 3.5 mph - 0.00 in Snow Light Snow
5:07 AM 30.0 °F 25.2 °F 30.0 °F 100% 30.02 in 1.0 mi East 4.6 mph - 0.00 in Snow Light Snow
5:15 AM 30.0 °F 23.2 °F 30.0 °F 100% 30.02 in 0.8 mi East 6.9 mph - 0.00 in   Overcast
5:34 AM 30.0 °F 23.2 °F 30.0 °F 100% 30.02 in 0.5 mi ESE 6.9 mph - 0.00 in Fog Light Freezing Fog
5:53 AM 30.0 °F 25.2 °F 30.0 °F 100% 30.02 in 0.5 mi East 4.6 mph - 0.00 in Fog Light Freezing Fog
6:10 AM 30.0 °F 24.1 °F 30.0 °F 100% 30.01 in 1.0 mi East 5.8 mph - 0.00 in Snow Light Snow
6:53 AM 30.0 °F 23.2 °F 30.0 °F 100% 30.01 in 1.0 mi East 6.9 mph - 0.01 in Snow Light Snow
7:09 AM 30.0 °F 21.1 °F 28.9 °F 96% 30.00 in 0.8 mi East 10.4 mph - 0.02 in Snow Light Snow
7:18 AM 30.0 °F 21.7 °F 28.9 °F 96% 30.00 in 0.5 mi East 9.2 mph - 0.04 in Fog , Snow Snow
7:25 AM 30.0 °F 22.4 °F 30.0 °F 100% 30.00 in 0.8 mi East 8.1 mph - 0.06 in Snow Light Snow
7:53 AM 28.9 °F 21.9 °F 28.9 °F 100% 29.99 in 0.8 mi East 6.9 mph - 0.08 in Snow Light Snow
7:55 AM 28.9 °F 21.9 °F 28.9 °F 100% 29.99 in 1.5 mi East 6.9 mph - 0.00 in Snow Light Snow
8:04 AM 28.9 °F 21.9 °F 28.9 °F 100% 29.99 in 3.0 mi East 6.9 mph - 0.00 in   Overcast
8:53 AM 28.9 °F 20.4 °F 28.9 °F 100% 29.99 in 6.0 mi East 9.2 mph - 0.00 in   Overcast
9:53 AM 28.9 °F 19.2 °F 28.0 °F 96% 29.98 in 9.0 mi East 11.5 mph - 0.00 in Snow Light Snow
10:53 AM 28.0 °F 18.1 °F 28.0 °F 100% 29.96 in 9.0 mi East 11.5 mph - 0.00 in   Overcast
11:01 AM 28.0 °F 18.1 °F 28.0 °F 100% 29.95 in 2.5 mi East 11.5 mph - 0.00 in Snow Light Snow
11:07 AM 28.0 °F 18.1 °F 28.0 °F 100% 29.95 in 0.8 mi East 11.5 mph - 0.00 in   Overcast
11:53 AM 28.0 °F 17.0 °F 28.0 °F 100% 29.94 in 0.8 mi ENE 13.8 mph - 0.00 in   Overcast
12:06 PM 28.0 °F 17.5 °F 28.0 °F 100% 29.93 in 0.5 mi East 12.7 mph - N/A Fog Light Freezing Fog
12:53 PM 28.0 °F 17.0 °F 28.0 °F 100% 29.92 in 0.5 mi East 13.8 mph - N/A Fog Light Freezing Fog
1:51 PM 28.4 °F 17.0 °F 28.4 °F 100% 29.89 in 0.5 mi East 15.0 mph - N/A Fog Light Freezing Fog
1:53 PM 28.0 °F 17.5 °F 28.0 °F 100% 29.90 in 0.5 mi East 12.7 mph - N/A Fog Light Freezing Fog
2:50 PM 28.4 °F 17.5 °F 28.4 °F 100% 29.87 in 1.0 mi East 13.8 mph - N/A   Overcast
2:53 PM 27.0 °F 15.2 °F 27.0 °F 100% 29.87 in 1.0 mi ENE 15.0 mph - N/A   Overcast
3:44 PM 27.0 °F 15.6 °F 27.0 °F 100% 29.85 in 4.0 mi East 13.8 mph - N/A   Overcast
3:53 PM 27.0 °F 15.2 °F 27.0 °F 100% 29.85 in 5.0 mi East 15.0 mph - N/A   Overcast
4:51 PM 26.6 °F 13.8 °F 26.6 °F 100% 29.81 in 10.0 mi East 17.3 mph - N/A   Overcast
4:53 PM 26.1 °F 12.7 °F 26.1 °F 100% 29.81 in 10.0 mi East 18.4 mph - N/A   Overcast
5:41 PM 25.0 °F 11.3 °F 24.1 °F 96% 29.78 in 10.0 mi ENE 18.4 mph - N/A   Mostly Cloudy
5:53 PM 25.0 °F 12.2 °F 24.1 °F 96% 29.79 in 10.0 mi ENE 16.1 mph - N/A   Mostly Cloudy
6:53 PM 24.1 °F 10.1 °F 23.0 °F 96% 29.77 in 10.0 mi ENE 18.4 mph - N/A   Mostly Cloudy
7:53 PM 25.0 °F 10.6 °F 24.1 °F 96% 29.73 in 10.0 mi East 20.7 mph 28.8 mph N/A   Mostly Cloudy
8:53 PM 25.0 °F 10.9 °F 21.9 °F 88% 29.70 in 10.0 mi ENE 19.6 mph 24.2 mph N/A   Mostly Cloudy
9:53 PM 25.0 °F 10.2 °F 21.9 °F 88% 29.69 in 10.0 mi ENE 21.9 mph - N/A   Mostly Cloudy
10:53 PM 25.0 °F 10.6 °F 21.9 °F 88% 29.65 in 10.0 mi East 20.7 mph 29.9 mph N/A   Mostly Cloudy
11:53 PM 25.0 °F 10.6 °F 21.9 °F 88% 29.64 in 10.0 mi ENE 20.7 mph 28.8 mph N/A   Mostly Cloudy